Johnstown, PA

4:48 AM EDT on May 27, 2017 (GMT -0400)
Johnstown-Cambria County

Weather History for KJST - November, 2012

Change the Weather History Date:

Friday, November 23, 2012

  Actual Average Record
Temperature  
Mean Temperature 38 °F 36 °F  
Max Temperature 50 °F 42 °F 69 °F (1931)
Min Temperature 26 °F 31 °F 11 °F (2000)
Degree Days  
Heating Degree Days 26 29  
Month to date heating degree days 551  
Since 1 July heating degree days 1244  
Cooling Degree Days 0 0  
Month to date cooling degree days 0  
Year to date cooling degree days 382  
Moisture  
Dew Point 34 °F    
Average Humidity 74    
Maximum Humidity 100    
Minimum Humidity 42    
Precipitation  
Precipitation 0.06 in 0.13 in 0.91 in (1934)
Month to date precipitation 2.78  
Year to date precipitation 30.13  
Sea Level Pressure  
Sea Level Pressure 29.86 in    
Wind  
Wind Speed 11 mph (SW)    
Max Wind Speed 25 mph    
Max Gust Speed 36 mph    
Visibility 8 miles    
Events Fog , Rain    
T = Trace of Precipitation, MM = Missing Value Source: NWS Daily Summary

Daily Weather History Graph

Daily Weather History Graph

Search for Another Location

Airport or City:

Trip Planner

Search our weather history database for the weather conditions in past years. The results will help you decide how hot, cold, wet, or windy it might be!

Date:

Astronomy

Nov. 23, 2012 Rise Set
Actual Time 7:10 AM EST 4:52 PM EST
Civil Twilight 6:41 AM EST 5:22 PM EST
Nautical Twilight 6:07 AM EST 5:55 PM EST
Astronomical Twilight 5:35 AM EST 6:28 PM EST
Moon 2:06 PM EST (11/23) 2:27 AM EST (11/23)
Length of Visible Light 10h 41m
Length of Day
9h 41m
Waxing Gibbous, 79% of the Moon is Illuminated
Nov 23
Waxing Gibbous
Nov 28
Full
Dec 6
Last Quarter
Dec 13
New
Dec 20
First Quarter

Hourly Weather History & Observations

Time (EST) Temp. Windchill Dew Point Humidity Pressure Visibility Wind Dir Wind Speed Gust Speed Precip Events Conditions
12:54 AM 43.0 °F 39.5 °F 23.0 °F 45% 30.06 in 10.0 mi SSW 5.8 mph - N/A   Clear
1:54 AM 42.1 °F 37.7 °F 23.0 °F 47% 30.05 in 10.0 mi South 6.9 mph - N/A   Clear
2:54 AM 43.0 °F 38.8 °F 23.0 °F 45% 30.03 in 10.0 mi SSW 6.9 mph - N/A   Clear
3:54 AM 45.0 °F 40.1 °F 25.0 °F 46% 30.00 in 10.0 mi South 9.2 mph - N/A   Scattered Clouds
4:54 AM 46.9 °F - 25.0 °F 42% 29.98 in 10.0 mi SSW 11.5 mph - N/A   Clear
5:54 AM 46.0 °F 41.0 °F 26.1 °F 46% 29.97 in 10.0 mi SW 10.4 mph - N/A   Clear
7:54 AM 46.9 °F - 30.9 °F 54% 29.94 in 10.0 mi SSW 12.7 mph - N/A   Clear
8:54 AM 48.0 °F - 33.1 °F 56% 29.91 in 10.0 mi SSW 12.7 mph 18.4 mph N/A   Clear
9:54 AM 48.9 °F - 34.0 °F 56% 29.88 in 10.0 mi SW 11.5 mph - N/A   Mostly Cloudy
10:54 AM 50.0 °F - 36.0 °F 59% 29.87 in 10.0 mi WSW 11.5 mph - 0.00 in Rain Light Rain
11:13 AM 48.2 °F - 37.4 °F 66% 29.84 in 10.0 mi WSW 12.7 mph - 0.00 in Rain Light Rain
11:54 AM 46.9 °F - 41.0 °F 80% 29.85 in 10.0 mi WSW 16.1 mph 24.2 mph 0.00 in Rain Light Rain
12:45 PM 44.6 °F 37.4 °F 42.8 °F 93% 29.81 in 2.0 mi SW 16.1 mph - 0.00 in Rain Light Rain
12:54 PM 45.0 °F 38.2 °F 43.0 °F 93% 29.84 in 1.5 mi SW 15.0 mph - 0.01 in Rain Light Rain
1:05 PM 44.6 °F 38.8 °F 42.8 °F 93% 29.80 in 2.0 mi SW 11.5 mph 19.6 mph 0.00 in Rain Light Rain
1:54 PM 44.1 °F 39.0 °F 43.0 °F 96% 29.82 in 2.0 mi SW 9.2 mph - 0.01 in Rain Light Rain
2:01 PM 44.6 °F 39.2 °F 42.8 °F 93% 29.79 in 1.2 mi SW 10.4 mph - 0.00 in Rain Light Rain
2:34 PM 44.6 °F 38.4 °F 42.8 °F 93% 29.78 in 0.8 mi SW 12.7 mph - 0.01 in Rain Light Rain
2:43 PM 44.6 °F 39.7 °F 42.8 °F 93% 29.78 in 0.2 mi SW 9.2 mph - 0.02 in Fog , Rain Rain
2:54 PM 44.1 °F 38.1 °F 43.0 °F 96% 29.81 in 0.5 mi WSW 11.5 mph - 0.03 in Fog , Rain Rain
3:02 PM 44.6 °F 38.1 °F 42.8 °F 93% 29.79 in 0.2 mi WSW 13.8 mph - 0.01 in Fog , Rain Light Rain
3:16 PM 42.8 °F 35.8 °F 42.8 °F 100% 29.79 in 3.0 mi WSW 13.8 mph - 0.01 in Rain Light Rain
3:27 PM 42.8 °F 36.6 °F 39.2 °F 87% 29.79 in 10.0 mi West 11.5 mph 23.0 mph 0.01 in   Overcast
3:37 PM 42.8 °F 36.6 °F 39.2 °F 87% 29.79 in 10.0 mi WSW 11.5 mph 23.0 mph 0.01 in   Overcast
3:54 PM 43.0 °F 36.0 °F 39.0 °F 86% 29.82 in 10.0 mi WSW 13.8 mph - 0.01 in Rain Light Rain
4:45 PM 42.8 °F 37.0 °F 39.2 °F 87% 29.77 in 10.0 mi SW 10.4 mph - 0.00 in   Overcast
4:54 PM 42.1 °F 36.1 °F 39.0 °F 89% 29.80 in 10.0 mi WSW 10.4 mph - 0.00 in   Overcast
5:02 PM 42.8 °F 37.0 °F 39.2 °F 87% 29.77 in 10.0 mi WSW 10.4 mph - N/A   Overcast
5:26 PM 42.8 °F 36.6 °F 39.2 °F 87% 29.78 in 10.0 mi WSW 11.5 mph 20.7 mph N/A   Overcast
5:46 PM 42.8 °F 35.1 °F 33.8 °F 70% 29.79 in 10.0 mi WSW 16.1 mph 28.8 mph N/A   Mostly Cloudy
5:54 PM 42.1 °F 33.9 °F 35.1 °F 76% 29.82 in 10.0 mi WSW 17.3 mph 23.0 mph N/A   Mostly Cloudy
6:54 PM 39.0 °F 29.6 °F 28.0 °F 65% 29.83 in 10.0 mi West 18.4 mph 31.1 mph N/A   Mostly Cloudy
7:45 PM 35.6 °F 25.2 °F 26.6 °F 70% 29.83 in 10.0 mi West 18.4 mph 33.4 mph N/A   Overcast
7:54 PM 35.1 °F 22.7 °F 24.1 °F 64% 29.87 in 10.0 mi West 25.3 mph 35.7 mph N/A   Overcast
8:54 PM 30.9 °F 20.7 °F 21.0 °F 67% 29.90 in 10.0 mi West 13.8 mph 31.1 mph N/A   Overcast
9:54 PM 28.9 °F 16.9 °F 19.9 °F 69% 29.91 in 9.0 mi West 17.3 mph 23.0 mph 0.00 in   Overcast
10:54 PM 27.0 °F 13.5 °F 18.0 °F 69% 29.91 in 10.0 mi West 19.6 mph 33.4 mph 0.00 in   Overcast
11:54 PM 26.1 °F 13.1 °F 18.0 °F 71% 29.90 in 10.0 mi West 17.3 mph 29.9 mph N/A   Overcast